EN

Hourly Weather Rhondda

Today, 19 January, Tuesday

Time Temperature Precipitation Wind Pressure Humidity
00:00 +6°C° 0 mm 9 mps 722 mmHg 97%
01:00 +6°C° 0.7 mm 10 mps 721 mmHg 97%
02:00 +6°C° 0.7 mm 11 mps 721 mmHg 96%
03:00 +6°C° 0.7 mm 11 mps 720 mmHg 96%
04:00 +6°C° 0.5 mm 11 mps 720 mmHg 96%
05:00 +6°C° 0.5 mm 11 mps 720 mmHg 95%
06:00 +6°C° 0 mm 10 mps 720 mmHg 94%
07:00 +6°C° 0.1 mm 10 mps 720 mmHg 94%
08:00 +6°C° 0.1 mm 10 mps 720 mmHg 95%
09:00 +6°C° 0.1 mm 10 mps 720 mmHg 95%
10:00 +6°C° 0.1 mm 10 mps 719 mmHg 94%
11:00 +6°C° 0.1 mm 9 mps 719 mmHg 93%
12:00 +6°C° 0.1 mm 9 mps 718 mmHg 92%
13:00 +6°C° 0.4 mm 9 mps 717 mmHg 92%
14:00 +6°C° 0.4 mm 10 mps 716 mmHg 93%
15:00 +6°C° 0.4 mm 10 mps 715 mmHg 93%
16:00 +6°C° 1 mm 10 mps 714 mmHg 94%
17:00 +6°C° 1 mm 10 mps 714 mmHg 94%
18:00 +6°C° 1 mm 10 mps 713 mmHg 95%
19:00 +6°C° 1.7 mm 10 mps 712 mmHg 95%
20:00 +7°C° 1.7 mm 10 mps 712 mmHg 95%
21:00 +7°C° 1.7 mm 10 mps 711 mmHg 95%
22:00 +7°C° 0.6 mm 10 mps 711 mmHg 95%
23:00 +7°C° 0.6 mm 10 mps 710 mmHg 95%

Tomorrow, 20 January, Wednesday

Time Temperature Precipitation Wind Pressure Humidity
00:00 +7°C° 0.6 mm 10 mps 710 mmHg 94%
01:00 +7°C° 1.3 mm 10 mps 709 mmHg 95%
02:00 +7°C° 1.3 mm 10 mps 709 mmHg 95%
03:00 +7°C° 1.3 mm 9 mps 708 mmHg 96%
04:00 +7°C° 1.4 mm 9 mps 708 mmHg 95%
05:00 +7°C° 1.4 mm 9 mps 707 mmHg 95%
06:00 +7°C° 1.4 mm 9 mps 707 mmHg 94%
07:00 +6°C° 1.8 mm 9 mps 706 mmHg 95%
08:00 +6°C° 1.8 mm 9 mps 705 mmHg 95%
09:00 +6°C° 1.8 mm 9 mps 705 mmHg 95%
10:00 +6°C° 1.4 mm 10 mps 704 mmHg 95%
11:00 +6°C° 1.4 mm 10 mps 703 mmHg 94%
12:00 +6°C° 1.4 mm 10 mps 703 mmHg 94%
13:00 +6°C° 0.5 mm 10 mps 702 mmHg 93%
14:00 +6°C° 0.5 mm 10 mps 701 mmHg 91%
15:00 +6°C° 0.5 mm 10 mps 701 mmHg 90%
16:00 +6°C° 1 mm 10 mps 700 mmHg 92%
17:00 +5°C° 1 mm 9 mps 699 mmHg 93%
18:00 +5°C° 1 mm 9 mps 698 mmHg 95%
19:00 +3°C° 2.4 mm 9 mps 697 mmHg 95%
20:00 +1°C° 2.4 mm 10 mps 697 mmHg 94%
21:00 0°C° 2.4 mm 10 mps 696 mmHg 93%
22:00 -2°C° 0.6 mm 11 mps 697 mmHg 90%
23:00 -2°C° 0.6 mm 11 mps 698 mmHg 87%

Day after tomorrow, 21 January, Thursday

Time Temperature Precipitation Wind Pressure Humidity
00:00 -2°C° 0.6 mm 11 mps 699 mmHg 84%
01:00 -2°C° 0.1 mm 11 mps 700 mmHg 83%
02:00 -2°C° 0.1 mm 10 mps 701 mmHg 82%
03:00 -1°C° 0.1 mm 9 mps 702 mmHg 80%
04:00 -2°C° 0.2 mm 10 mps 702 mmHg 80%
05:00 -2°C° 0.2 mm 10 mps 702 mmHg 79%
06:00 0°C° 0.2 mm 10 mps 702 mmHg 78%
07:00 -1°C° 0.2 mm 11 mps 702 mmHg 78%
08:00 -1°C° 0.2 mm 11 mps 702 mmHg 78%
09:00 -1°C° 0.2 mm 11 mps 701 mmHg 78%
10:00 -1°C° 0 mm 11 mps 702 mmHg 76%
11:00 +1°C° 0 mm 11 mps 702 mmHg 74%
12:00 +2°C° 0 mm 12 mps 702 mmHg 72%
13:00 +1°C° 0.1 mm 11 mps 702 mmHg 75%
14:00 +1°C° 0.1 mm 10 mps 702 mmHg 77%
15:00 +1°C° 0.1 mm 9 mps 702 mmHg 80%
16:00 0°C° 0.1 mm 8 mps 703 mmHg 82%
17:00 -1°C° 0.1 mm 7 mps 703 mmHg 84%
18:00 -1°C° 0.1 mm 7 mps 703 mmHg 86%
19:00 -1°C° 0 mm 7 mps 703 mmHg 86%
20:00 -1°C° 0 mm 7 mps 704 mmHg 85%
21:00 -1°C° 0 mm 7 mps 704 mmHg 85%
22:00 -2°C° 0 mm 7 mps 704 mmHg 84%
23:00 -2°C° 0 mm 7 mps 705 mmHg 84%

22 January, Friday

Time Temperature Precipitation Wind Pressure Humidity
00:00 -2°C° 0 mm 7 mps 705 mmHg 84%
01:00 -2°C° 0 mm 7 mps 706 mmHg 83%
02:00 -2°C° 0 mm 7 mps 706 mmHg 82%
03:00 -2°C° 0 mm 7 mps 707 mmHg 81%
04:00 -2°C° 0 mm 7 mps 707 mmHg 81%
05:00 -3°C° 0 mm 7 mps 707 mmHg 82%
06:00 -3°C° 0 mm 6 mps 707 mmHg 82%
07:00 -2°C° 0 mm 6 mps 708 mmHg 83%
08:00 -2°C° 0 mm 6 mps 708 mmHg 83%
09:00 -2°C° 0 mm 6 mps 708 mmHg 83%
10:00 -1°C° 0 mm 6 mps 709 mmHg 79%
11:00 0°C° 0 mm 7 mps 709 mmHg 76%
12:00 +2°C° 0 mm 7 mps 710 mmHg 72%
13:00 0°C° 0 mm 7 mps 709 mmHg 73%
14:00 +1°C° 0 mm 6 mps 709 mmHg 73%
15:00 +1°C° 0 mm 6 mps 709 mmHg 73%
16:00 0°C° 0 mm 5 mps 709 mmHg 77%
17:00 -1°C° 0 mm 4 mps 709 mmHg 82%
18:00 -1°C° 0 mm 3 mps 709 mmHg 86%
19:00 -2°C° 0 mm 3 mps 709 mmHg 86%
20:00 -2°C° 0 mm 2 mps 709 mmHg 86%
21:00 0°C° 0 mm 1 mps 709 mmHg 86%
22:00 0°C° 0 mm 1 mps 709 mmHg 85%
23:00 0°C° 0 mm 1 mps 709 mmHg 84%

23 January, Saturday

Time Temperature Precipitation Wind Pressure Humidity
00:00 0°C° 0 mm 1 mps 709 mmHg 83%
01:00 0°C° 0 mm 1 mps 709 mmHg 84%
02:00 0°C° 0 mm 1 mps 709 mmHg 85%
03:00 0°C° 0 mm 1 mps 709 mmHg 85%
04:00 0°C° 0 mm 1 mps 709 mmHg 86%
05:00 0°C° 0 mm 1 mps 709 mmHg 86%
06:00 -1°C° 0 mm 1 mps 710 mmHg 86%
07:00 0°C° 0 mm 1 mps 710 mmHg 86%
08:00 0°C° 0 mm 1 mps 710 mmHg 86%
09:00 0°C° 0 mm 1 mps 711 mmHg 86%
10:00 -1°C° 0 mm 2 mps 711 mmHg 81%
11:00 0°C° 0 mm 3 mps 711 mmHg 76%
12:00 +1°C° 0 mm 3 mps 712 mmHg 71%
13:00 0°C° 0.1 mm 4 mps 712 mmHg 73%
14:00 0°C° 0.1 mm 4 mps 712 mmHg 74%
15:00 0°C° 0.1 mm 4 mps 712 mmHg 76%
16:00 0°C° 0 mm 3 mps 712 mmHg 80%
17:00 -2°C° 0 mm 2 mps 712 mmHg 84%
18:00 -3°C° 0 mm 2 mps 713 mmHg 88%
19:00 -1°C° 0 mm 1 mps 713 mmHg 88%
20:00 -1°C° 0 mm 1 mps 713 mmHg 88%
21:00 -1°C° 0 mm 1 mps 713 mmHg 87%
22:00 -1°C° 0 mm 1 mps 713 mmHg 86%
23:00 -1°C° 0 mm 1 mps 713 mmHg 85%

24 January, Sunday

Time Temperature Precipitation Wind Pressure Humidity
00:00 -3°C° 0 mm 2 mps 713 mmHg 84%
01:00 -2°C° 0.2 mm 2 mps 713 mmHg 88%
02:00 -2°C° 0.2 mm 3 mps 713 mmHg 92%
03:00 -2°C° 0.2 mm 4 mps 713 mmHg 95%
04:00 -3°C° 0.3 mm 4 mps 713 mmHg 92%
05:00 -3°C° 0.3 mm 4 mps 713 mmHg 90%
06:00 -3°C° 0.3 mm 4 mps 713 mmHg 87%
07:00 -3°C° 0 mm 4 mps 714 mmHg 85%
08:00 -3°C° 0 mm 4 mps 714 mmHg 83%
09:00 -3°C° 0 mm 4 mps 714 mmHg 81%
10:00 -2°C° 0 mm 5 mps 715 mmHg 76%
11:00 -1°C° 0 mm 5 mps 715 mmHg 71%
12:00 -1°C° 0 mm 6 mps 715 mmHg 66%
13:00 -1°C° 0.1 mm 6 mps 716 mmHg 67%
14:00 0°C° 0.1 mm 5 mps 716 mmHg 69%
15:00 0°C° 0.1 mm 5 mps 716 mmHg 70%
16:00 -1°C° 0 mm 5 mps 716 mmHg 74%
17:00 -2°C° 0 mm 4 mps 716 mmHg 77%
18:00 -3°C° 0 mm 4 mps 716 mmHg 81%
19:00 -3°C° 0 mm 4 mps 716 mmHg 81%
20:00 -3°C° 0 mm 4 mps 716 mmHg 81%
21:00 -3°C° 0 mm 4 mps 716 mmHg 81%
22:00 -2°C° 0 mm 5 mps 716 mmHg 83%
23:00 -2°C° 0 mm 5 mps 716 mmHg 84%
Show more